星链-1591 (STARLINK-1591 )

导读

STARLINK-1591是美国SpaceX公司星链星座的成员,于2020年8月7日发射。它运行在近地轨道,属于星链低轨互联网卫星星座组网的一部分,主要目标是为全球,尤其是偏远和网络欠覆盖地区提供高速低延迟宽带互联网服务,助力星链实现全球无缝网络覆盖的目标。

Basic Information
目录编号:
46045
目录名称:
STARLINK-1591
国际标识:
2020-055U
轨道中心:
EARTH
卫星名称:
星链-1591
卫星全名:
星链-1591 (STARLINK-1591 )
卫星状态:
在轨 (已飞行2181 天)
发射日期:
2020-08-07 UTC
国别 :
美国 (US)
星等 :
--
Orbit Information
数据来源 国际轨道数据 AOE轨道数据
星历时间 2026-07-27T11:11:04+0800
22小时前
查看轨道信息
2026-07-25T00:00:00+0800
3天前
查看轨道信息
半长轴 6848.887km 6848.877km
偏心率 0.0001245 0.0001987
轨道倾角 53.158° 53.155°
近地点辐角 100.747° 149.899°
升交点赤经 198.574° 210.041°
平近点角 259.367° 284.730°
近地点 469.897km 469.379km
远地点 471.603km 472.101km
周期 94.013分钟 94.013分钟
每日圈数 15.316968 15.317003
Detailed Information
固有亮度:
5
最大亮度:
2.5
卫星平台:
Starlink V1.0
覆盖范围:
全球
运营商:
太空探索技术公司
运营商所在国:
美国
制造商(研发单位):
太空探索技术公司
制造商所在国:
美国
使用方式:
暂无
Satellite Introduction
星链(Starlink)计划是由太空探索技术公司(SpaceX)提出的一个巨型低轨卫星互联网星座项目,计划在2019年至2024年间在太空搭建由约1.2万颗卫星组成的“星链”网络,其中1584颗将部署在地球上空550千米处的近地轨道,并从2020年开始工作。该卫星仍在工作。
2D Orbit Map
3D Orbit Map
Orbit Altitude Analysis Chart
Orbit Inclination Analysis Chart
Orbit Comprehensive Analysis Chart
View Comprehensive Chart